Hillsdale, MI

5:31 AM EST on November 17, 2019 (GMT -0500)
Hillsdale Municipal

Weather History for KJYM - September, 2019

Change the Weather History Date:

Tuesday, September 10, 2019

  Actual Average Record
Temperature  
Mean Temperature 72 °F -  
Max Temperature 85 °F 75 °F 92 °F (1983)
Min Temperature 59 °F 51 °F 34 °F (1969)
Cooling Degree Days 7    
Growing Degree Days 22 (Base 50)    
Moisture  
Dew Point 63 °F    
Average Humidity 77    
Maximum Humidity 89    
Minimum Humidity 57    
Precipitation  
Precipitation 0.02 in - - ()
Sea Level Pressure  
Sea Level Pressure 30.15 in    
Wind  
Wind Speed 7 mph ()    
Max Wind Speed 13 mph    
Max Gust Speed 18 mph    
Visibility 9.0 miles    
Events      
Averages and records for this station are not official NWS values.
T = Trace of Precipitation, MM = Missing Value Source: Averaged Metar Reports

Daily Weather History Graph

Daily Weather History Graph

Search for Another Location

Airport or City:

Astronomy

Sep. 10, 2019 Rise Set
Actual Time 7:13 AM EDT 7:56 PM EDT
Civil Twilight 6:44 AM EDT 8:25 PM EDT
Nautical Twilight 6:11 AM EDT 8:58 PM EDT
Astronomical Twilight 5:36 AM EDT 9:32 PM EDT
Moon 6:36 PM EDT (9/10) 3:34 AM EDT (9/10)
Length of Visible Light 13h 40m
Length of Day
12h 43m
Waxing Gibbous, 89% of the Moon is Illuminated
Sep 10
Waxing Gibbous
Sep 14
Full
Sep 21
Last Quarter
Sep 28
New
Oct 5
First Quarter

Hourly Weather History & Observations

Time (EDT) Temp. Heat Index Dew Point Humidity Pressure Visibility Wind Dir Wind Speed Gust Speed Precip Events Conditions
12:17 AM 63.1 °F - 56.3 °F 78% 30.21 in 10.0 mi SE 12.7 mph 16.1 mph N/A   Overcast
12:35 AM 61.7 °F - 57.2 °F 85% 30.20 in 10.0 mi SE 8.1 mph 17.3 mph 0.02 in   Overcast
12:36 AM 61.7 °F - 57.2 °F 85% 30.20 in 10.0 mi SE 9.2 mph 17.3 mph 0.02 in   Overcast
12:55 AM 61.7 °F - 57.4 °F 86% 30.20 in 10.0 mi SE 6.9 mph 16.1 mph 0.02 in   Scattered Clouds
1:15 AM 61.3 °F - 57.2 °F 86% 30.20 in 7.0 mi SE 8.1 mph - N/A   Clear
1:38 AM 60.8 °F - 57.0 °F 87% 30.20 in 4.0 mi SE 8.1 mph - N/A   Scattered Clouds
1:56 AM 60.8 °F - 57.0 °F 87% 30.20 in 4.0 mi SE 8.1 mph - N/A   Scattered Clouds
2:15 AM 60.4 °F - 56.7 °F 87% 30.20 in 4.0 mi SSE 5.8 mph - N/A   Scattered Clouds
2:35 AM 60.6 °F - 56.5 °F 86% 30.20 in 4.0 mi SSE 8.1 mph - N/A   Scattered Clouds
2:59 AM 60.3 °F - 56.3 °F 87% 30.18 in 4.0 mi SE 5.8 mph - N/A   Scattered Clouds
3:17 AM 59.9 °F - 56.3 °F 88% 30.18 in 4.0 mi SE 6.9 mph - N/A   Clear
3:35 AM 59.9 °F - 56.3 °F 88% 30.18 in 4.0 mi SSE 5.8 mph - N/A   Clear
3:55 AM 59.9 °F - 56.3 °F 88% 30.17 in 4.0 mi SE 8.1 mph - N/A   Clear
4:15 AM 59.9 °F - 56.3 °F 88% 30.17 in 5.0 mi SSE 8.1 mph - N/A   Clear
4:20 AM 60.1 °F - 56.3 °F 87% 30.17 in 5.0 mi SE 8.1 mph - N/A   Clear
4:38 AM 59.9 °F - 56.3 °F 88% 30.17 in 7.0 mi SSE 6.9 mph - N/A   Clear
4:56 AM 59.9 °F - 56.3 °F 88% 30.17 in 7.0 mi SSE 5.8 mph - N/A   Clear
5:15 AM 59.5 °F - 56.3 °F 89% 30.17 in 7.0 mi SSE 5.8 mph - N/A   Clear
5:35 AM 59.9 °F - 56.3 °F 88% 30.16 in 7.0 mi SSE 6.9 mph - N/A   Clear
5:36 AM 59.9 °F - 56.3 °F 88% 30.16 in 7.0 mi SSE 6.9 mph - N/A   Clear
5:59 AM 59.7 °F - 56.5 °F 89% 30.16 in 7.0 mi SSE 5.8 mph - N/A   Clear
6:17 AM 60.3 °F - 57.0 °F 89% 30.16 in 10.0 mi South 8.1 mph - N/A   Clear
6:35 AM 60.8 °F - 57.2 °F 88% 30.16 in 10.0 mi South 6.9 mph - N/A   Clear
6:55 AM 60.8 °F - 57.6 °F 89% 30.16 in 10.0 mi SSE 6.9 mph - N/A   Clear
6:56 AM 61.0 °F - 57.6 °F 88% 30.16 in 10.0 mi SSE 6.9 mph - N/A   Clear
7:15 AM 61.3 °F - 58.1 °F 89% 30.16 in 10.0 mi SSE 8.1 mph - N/A   Clear
7:20 AM 61.5 °F - 58.1 °F 89% 30.16 in 10.0 mi South 8.1 mph - N/A   Clear
7:38 AM 61.9 °F - 58.5 °F 89% 30.16 in 10.0 mi SSE 6.9 mph - N/A   Clear
7:56 AM 62.6 °F - 58.8 °F 87% 30.18 in 10.0 mi South 6.9 mph - N/A   Clear
8:15 AM 63.0 °F - 59.2 °F 87% 30.18 in 10.0 mi South 8.1 mph - N/A   Clear
8:16 AM 63.0 °F - 59.2 °F 87% 30.18 in 10.0 mi South 6.9 mph - N/A   Clear
8:35 AM 64.4 °F - 59.9 °F 85% 30.18 in 10.0 mi South 6.9 mph - N/A   Clear
8:36 AM 64.4 °F - 59.9 °F 85% 30.18 in 10.0 mi South 6.9 mph - N/A   Clear
9:17 AM 66.2 °F - 61.2 °F 84% 30.17 in 10.0 mi South 9.2 mph - N/A   Clear
9:35 AM 68.7 °F - 62.2 °F 80% 30.17 in 10.0 mi SSW 8.1 mph - N/A   Clear
10:01 AM 68.9 °F - 62.4 °F 80% 30.17 in 10.0 mi South 8.1 mph - N/A   Clear
10:19 AM 70.5 °F - 63.0 °F 77% 30.18 in 10.0 mi SSW 10.4 mph - N/A   Clear
10:37 AM 71.6 °F - 63.5 °F 76% 30.18 in 10.0 mi SSW 10.4 mph 16.1 mph N/A   Clear
10:55 AM 74.3 °F - 64.4 °F 71% 30.18 in 10.0 mi SSW 8.1 mph - N/A   Mostly Cloudy
10:56 AM 74.3 °F - 64.4 °F 71% 30.18 in 10.0 mi SSW 8.1 mph - N/A   Mostly Cloudy
11:15 AM 76.3 °F - 64.9 °F 68% 30.18 in 10.0 mi WSW 6.9 mph - N/A   Overcast
11:35 AM 77.2 °F - 65.1 °F 66% 30.18 in 10.0 mi SW 5.8 mph - N/A   Mostly Cloudy
11:58 AM 78.6 °F - 65.8 °F 65% 30.18 in 10.0 mi SW 5.8 mph - N/A   Scattered Clouds
12:16 PM 80.4 °F 82.7 °F 66.7 °F 63% 30.17 in 10.0 mi SW 9.2 mph - N/A   Scattered Clouds
12:35 PM 81.1 °F 83.2 °F 66.0 °F 60% 30.16 in 10.0 mi SSW 10.4 mph - N/A   Scattered Clouds
12:55 PM 81.5 °F 83.7 °F 66.4 °F 60% 30.16 in 10.0 mi SSW 11.5 mph - N/A   Clear
1:19 PM 82.4 °F 84.8 °F 66.9 °F 59% 30.16 in 10.0 mi SSW 9.2 mph - N/A   Clear
1:37 PM 83.3 °F 86.2 °F 67.6 °F 59% 30.15 in 10.0 mi South 8.1 mph - N/A   Clear
1:55 PM 81.7 °F 84.0 °F 66.4 °F 60% 30.16 in 10.0 mi SSW 9.2 mph 16.1 mph N/A   Clear
1:56 PM 81.7 °F 83.8 °F 66.2 °F 59% 30.16 in 10.0 mi SW 9.2 mph 16.1 mph N/A   Clear
2:15 PM 83.5 °F 86.4 °F 67.8 °F 59% 30.15 in 10.0 mi SSW 5.8 mph - N/A   Clear
2:35 PM 84.0 °F 87.0 °F 67.6 °F 58% 30.14 in 10.0 mi SSW 5.8 mph - N/A   Clear
2:58 PM 84.6 °F 87.6 °F 67.8 °F 57% 30.14 in 10.0 mi SSW 12.7 mph 17.3 mph N/A   Scattered Clouds
3:16 PM 85.3 °F 88.8 °F 68.7 °F 57% 30.13 in 10.0 mi SSW 5.8 mph - N/A   Scattered Clouds
3:35 PM 84.9 °F 88.8 °F 68.9 °F 59% 30.13 in 10.0 mi SSW 9.2 mph - N/A   Clear
3:55 PM 84.2 °F 87.6 °F 68.5 °F 59% 30.13 in 10.0 mi SSW 10.4 mph - N/A   Clear
4:19 PM 83.1 °F 86.6 °F 69.1 °F 62% 30.12 in 10.0 mi SSW 6.9 mph - N/A   Clear
4:37 PM 83.8 °F 87.3 °F 68.5 °F 60% 30.12 in 10.0 mi South 12.7 mph 18.4 mph N/A   Clear
4:55 PM 82.0 °F 85.1 °F 68.4 °F 63% 30.12 in 10.0 mi SSW 8.1 mph 17.3 mph N/A   Clear
5:15 PM 81.9 °F 85.2 °F 69.1 °F 65% 30.11 in 10.0 mi SSW 6.9 mph 16.1 mph N/A   Clear
5:35 PM 81.7 °F 84.9 °F 69.1 °F 65% 30.11 in 10.0 mi SSW 8.1 mph - N/A   Clear
5:58 PM 81.3 °F 84.5 °F 69.1 °F 66% 30.11 in 10.0 mi SSW 9.2 mph - N/A   Clear
6:16 PM 80.8 °F 83.9 °F 69.4 °F 68% 30.11 in 10.0 mi South 4.6 mph - N/A   Clear
6:35 PM 80.6 °F 83.9 °F 69.8 °F 70% 30.11 in 10.0 mi South 6.9 mph - N/A   Clear
6:55 PM 79.9 °F - 69.8 °F 71% 30.10 in 10.0 mi SSW 5.8 mph - N/A   Clear
7:19 PM 79.2 °F - 70.2 °F 74% 30.10 in 10.0 mi SSW 5.8 mph - N/A   Clear
7:37 PM 78.4 °F - 70.2 °F 76% 30.10 in 10.0 mi SSW 5.8 mph - N/A   Clear
7:55 PM 78.1 °F - 70.2 °F 77% 30.10 in 10.0 mi SSW 6.9 mph - N/A   Clear
7:56 PM 78.1 °F - 70.2 °F 77% 30.10 in 10.0 mi SSW 5.8 mph - N/A   Clear
8:15 PM 77.9 °F - 70.2 °F 77% 30.09 in 10.0 mi South 8.1 mph - N/A   Clear
8:35 PM 77.9 °F - 70.0 °F 76% 30.10 in 10.0 mi SSW 6.9 mph - N/A   Clear
8:58 PM 77.4 °F - 69.8 °F 77% 30.10 in 10.0 mi SSW 6.9 mph - N/A   Clear
9:16 PM 77.0 °F - 69.4 °F 77% 30.11 in 10.0 mi SSW 4.6 mph - N/A   Clear
9:35 PM 77.0 °F - 69.3 °F 77% 30.11 in 10.0 mi SSW 5.8 mph - N/A   Clear
9:55 PM 76.6 °F - 69.1 °F 77% 30.12 in 10.0 mi SSW 6.9 mph - N/A   Clear
10:19 PM 76.5 °F - 68.9 °F 77% 30.12 in 10.0 mi SW 5.8 mph - N/A   Clear
10:37 PM 75.9 °F - 68.9 °F 79% 30.12 in 10.0 mi SW 5.8 mph - N/A   Clear
10:56 PM 75.4 °F - 69.1 °F 81% 30.13 in 10.0 mi SW 5.8 mph - N/A   Clear
11:15 PM 75.2 °F - 69.1 °F 81% 30.13 in 10.0 mi SSW 5.8 mph - N/A   Clear
11:58 PM 74.8 °F - 69.1 °F 82% 30.14 in 10.0 mi SSW 5.8 mph - N/A   Clear